Regional Weather Roundup
Issued by NWS

Home | Current Version | Previous Version | Text Only | Print | Product List | Glossary Off
Versions: 1 2 3 4 5 6 7 8 9 10 11 12 13 14 15 16 17 18 19 20 21 22 23 24 25 26 27 28 29 30 31 32 33 34 35 36 37 38 39 40 41 42 43 44 45 46 47 48 49 50

595
ASUS43 KLMK 251402
RWRKY
KENTUCKY REGIONAL WEATHER ROUNDUP
NATIONAL WEATHER SERVICE LOUISVILLE KY
900 AM EST SUN FEB 25 2018

NOTE "FAIR" INDICATES FEW OR NO CLOUDS BELOW 12,000 FEET
WITH NO SIGNIFICANT WEATHER AND/OR OBSTRUCTIONS TO VISIBILITY.

KYZ001>023-026-027-061>063-070>075-251500-
WESTERN AND SOUTH CENTRAL KENTUCKY

CITY           SKY/WX    TMP DP  RH WIND       PRES   REMARKS
PADUCAH        FAIR      43  35  73 CALM      30.10R
HENDERSON      FAIR      43  34  70 W12       30.10R
OWENSBORO      FAIR      44  37  76 W8        30.09R
HOPKINSVILLE   FAIR      47  39  75 W7        30.08R
BOWLING GREEN  FAIR      48  40  73 NW5       30.07R
GLASGOW        NOT AVBL
$$

KYZ024-025-028>034-038-045-046-053-251500-
NORTH CENTRAL KENTUCKY

CITY           SKY/WX    TMP DP  RH WIND       PRES   REMARKS
LOUISVILLE/SDF PTSUNNY   47  37  68 W12       30.03R
LOUISVILLE/LOU FAIR      46  38  73 W7        30.04R
FORT KNOX      FAIR      43  34  70 W12       30.06R
$$

KYZ035>037-039>044-047>052-055>060-089>105-251500-
NORTHEAST KENTUCKY

CITY           SKY/WX    TMP DP  RH WIND       PRES   REMARKS
LEXINGTON      FAIR      48  40  73 W14       30.03R
COVINGTON      CLOUDY    45  37  73 W8        29.97R
FRANKFORT      FAIR      47  38  71 W6        30.02R
$$

KYZ054-064>069-076>088-106>120-251500-
SOUTHEAST KENTUCKY

CITY           SKY/WX    TMP DP  RH WIND       PRES   REMARKS
JACKSON        PTSUNNY   55  51  86 VRB3      30.00R
LONDON         CLOUDY    54  51  90 SW9       30.04R
SOMERSET       CLOUDY    54  50  87 W8        30.05R
MIDDLESBORO    CLOUDY    56  49  78 SW5       30.09R
MONTICELLO     LGT RAIN  52  47  83 NW15G22   30.07R
$$





USA.gov is the U.S. government's official web portal to all federal, state and local government web resources and services.